カタログに戻る

FENGYUN 1C DEB

運用中LEO
NORAD 30121·DEBRIS·🇨🇳 China

打ち上げ May 10, 1999 から Taiyuan Satellite Launch Center

Loading…

次のパス (今後24時間)

TLE

最新Source: Space-Track

元期: Sep 14, 2026, 14:46 UTC

1 30121U 99025SA  26257.61545318  .00005992  00000-0  17687-2 0  9993
2 30121 102.1616  39.7686 0030431 159.2370 263.5149 14.43861647 15070

AllMySatでFENGYUN 1C DEBをリアルタイム追跡

Download on the App Store